User: anonymous   Login
Location: Newark
(33.6333°S, 78.8500°W)
Time: 16:24:31
(UTC+00:00)
Language:

deb Explorer IX - Orbit

View from above orbital plane
View from above orbital plane
View from above satellite
View from above satellite

Ground track
Ground track

The orbit data is extracted from the following two-line orbital elements,

1    85U 61004C   19260.34137710 -.00002164  00000-0 -43997-3 0  9998
2    85  38.7743 338.3058 0390723 113.4556 250.7759 14.19942423892098
Epoch (UTC): 17 September 2019 08:11:34
Eccentricity: 0.0390723
inclination: 38.7743°
perigee height: 544 km
apogee height: 1107 km
right ascension of ascending node: 338.3058°
argument of perigee: 113.4556°
revolutions per day: 14.19942423
mean anomaly at epoch: 250.7759°
orbit number at epoch: 89209

The dashed part of the orbit path shows where the satellite is in the earth's shadow,  

DLR